GOES 16 (41866 NORAD) Tracking and Keplerian Element Data

This shows tracking and keplerian element data for the satellite.

Feedback or suggestion? Click here.




ElementValue
Catalog41866
NameGOES 16
Epoch Orbit610
Epoch Day197.39177653
Epoch Year2018
RAAN94.9217
Inclination0.0083
Eccentricity2.36E-05
Argument of Perigee58.3628
Mean Anonmoly206.7167
Mean Motion1.00268309
Decay Rate-2.68E-06
L11 41866U 16071A 18197.39177653 -.00000268 00000-0 00000+0 0 9993
L22 41866 0.0083 94.9217 0000236 58.3628 206.7167 1.00268309 6108

Live tracking and technical data element details for GOES 16 (NORAD 41866). GOES 16 can be tracked NOW for your location showing map with azimuth and elevation plus other details from your city location.

Track the satellite on the map from your city or location and see movement details for azimuth, elevation, latitude, longitude, range, height, and movement on the map or in text.







IsCatalogInMostPopularTable: catalog: 41866, numindb: 71
Update: records affected: 1



GetName: 41866 GOES 16

Hit Count: updated at: Thu, 19 Jul 2018 03:54:48 GMT